Location: Nitra
(0.0000°N, 18.0833°E)
Time: 17:07:34
(UTC+02:00)

Vanguard 2 - Visible Passes

Search period start: 31 March 2023 00:00
Search period end: 10 April 2023 00:00
Orbit: 552 x 2927 km, 32.9° (Epoch: 31 March)

Date Brightness Start Highest point End Pass type
(mag) Time Alt. Az. Time Alt. Az. Time Alt. Az.
31 Mar 11.5 01:55:34 21° NE 01:55:34 21° NE 01:59:56 10° NE visible
31 Mar 10.8 03:56:51 36° NNW 03:56:51 36° NNW 04:11:41 10° NNE visible
31 Mar 11.5 06:02:06 10° NW 06:12:25 18° NNW 06:22:08 10° NNE visible
01 Apr 11.4 02:10:38 25° NE 02:10:38 25° NE 02:16:20 10° NE visible
01 Apr 11.0 04:11:54 29° NNW 04:13:22 29° NNW 04:27:44 10° NNE visible
01 Apr 11.6 06:21:25 10° NW 06:30:29 16° N 06:38:55 10° NNE visible
02 Apr 11.3 02:25:38 27° NNE 02:25:38 27° NNE 02:32:32 10° NE visible
02 Apr 11.1 04:26:53 22° NW 04:30:54 24° NNW 04:43:52 10° NNE visible
03 Apr 11.2 02:40:34 28° NNE 02:40:34 28° NNE 02:48:37 10° NE visible
03 Apr 11.3 04:41:49 16° NW 04:48:41 20° NNW 05:00:11 10° NNE visible
04 Apr 11.2 02:55:27 27° N 02:55:27 27° N 03:04:40 10° NNE visible
04 Apr 11.5 04:56:42 10° NW 05:06:40 17° N 05:16:52 10° NNE visible
05 Apr 11.2 03:10:18 25° N 03:10:18 25° N 03:20:44 10° NNE visible
05 Apr 11.6 05:15:31 10° NW 05:24:50 16° N 05:34:07 10° NNE visible
06 Apr 11.8 01:23:52 12° NE 01:23:52 12° NE 01:24:53 10° NE visible
06 Apr 11.3 03:25:06 21° NNW 03:25:06 21° NNW 03:36:55 10° NNE visible
06 Apr 11.7 05:33:44 10° NNW 05:43:03 16° N 05:52:06 10° NE visible
07 Apr 11.7 01:38:39 14° NNE 01:38:39 14° NNE 01:40:53 10° NE visible
07 Apr 11.4 03:39:53 17° NNW 03:42:52 18° N 03:53:22 10° NNE visible
07 Apr 11.7 05:51:12 10° NNW 06:01:13 17° N 06:10:40 10° NE visible
08 Apr 11.6 01:53:25 16° NNE 01:53:25 16° NNE 01:56:49 10° NNE visible
08 Apr 11.5 03:54:38 13° NNW 04:00:53 16° N 04:10:19 10° NNE visible
08 Apr 11.8 06:08:00 10° NNW 06:19:13 19° NNE 06:29:28 10° NE visible
09 Apr 11.5 02:08:10 17° NNE 02:08:10 17° NNE 02:12:47 10° NNE visible
09 Apr 11.6 04:10:35 10° NNW 04:19:01 15° N 04:28:00 10° NNE visible
09 Apr 11.8 06:24:21 10° NNW 06:36:59 23° NNE 06:48:07 10° ENE visible
